Wetbulb
64.02 60.24 55.32 53.44 46.71 44.20 39.33 42.44 45.67 46.64 47.40 51.50 53.83 52.10 52.08 53.54 50.36 44.63 63.14 66.58 68.03 68.44 69.01 69.14 70.46 70.58 70.41 70.41 70.40 69.95 69.46 68.58 68.13 68.46 67.94 67.43 67.39 66.67 66.25 66.38 66.81 67.69 67.64 67.95 68.29 68.42 67.91 67.41 67.13
62.32 58.43 54.37 48.38 42.74 38.73 40.17 43.83 45.48 47.91 53.19 54.63 52.96 53.66 53.50 51.50 58.58 62.10 62.72 67.62 68.58 68.92 68.93 69.02 69.78 70.57 69.75 69.42 69.72 69.77 69.76 68.29 67.71 67.55 67.29 67.03 66.36 66.29 66.93 66.07 65.54 66.00 67.80 67.12 67.11 67.12 67.09 67.07 66.55
58.27 57.04 52.66 45.61 40.75 39.32 41.15 45.24 46.36 49.86 54.10 48.77 51.64 54.49 53.49 54.96 58.91 62.37 64.90 68.32 68.98 68.79 69.01 68.80 69.73 70.50 69.58 69.16 68.66 68.72 69.41 69.06 67.49 67.20 66.37 65.76 65.76 65.45 65.04 65.31 65.41 65.21 65.21 66.94 66.55 66.38 66.47 66.71 66.80
54.06 53.61 51.09 44.43 40.14 42.22 44.92 46.86 48.46 50.70 50.23 52.13 52.11 51.12 55.50 60.28 61.49 63.25 67.55 68.71 68.15 68.32 68.80 68.52 70.17 70.42 69.91 69.44 68.78 69.14 69.58 68.93 67.75 67.34 67.13 66.23 65.53 64.88 64.62 64.48 65.43 64.45 65.75 66.68 65.82 65.58 65.75 67.13 66.80
52.17 49.72 44.35 41.73 41.12 43.54 46.21 49.03 50.07 49.02 49.20 50.11 50.47 49.76 52.99 60.44 62.97 66.54 67.01 68.00 67.06 67.26 68.00 68.13 69.83 70.50 70.46 70.00 69.16 68.92 69.32 69.17 68.54 68.06 67.56 67.08 66.03 65.27 64.34 64.37 64.27 64.74 65.46 65.68 65.41 64.87 64.77 65.17 66.16
49.06 47.95 41.83 39.69 41.07 45.25 46.89 49.33 49.87 49.50 50.48 51.68 52.20 51.70 52.45 60.58 64.34 65.47 66.58 66.11 67.38 67.25 67.86 67.91 66.86 68.48 69.60 69.94 69.79 69.55 69.25 68.79 68.26 68.41 68.00 67.43 67.00 66.25 64.92 64.28 63.80 63.07 62.91 63.83 64.48 63.95 63.71 63.92 64.36
47.04 44.63 41.14 41.42 42.24 44.03 46.97 50.05 49.86 49.85 49.87 49.01 54.28 51.08 53.34 57.99 63.30 65.17 65.91 66.28 66.82 67.21 67.51 67.43 67.44 67.16 66.10 67.82 68.17 68.72 68.93 68.64 68.71 68.64 68.84 67.88 67.41 67.17 66.68 66.50 65.52 63.68 62.99 63.06 63.50 63.77 63.51 63.40 63.67
47.36 45.55 41.39 40.47 42.49 43.61 47.63 49.39 50.49 49.94 50.13 54.16 55.62 51.34 54.41 59.31 62.86 63.84 65.49 65.06 65.42 65.96 66.56 66.47 66.65 66.91 66.39 66.32 65.03 65.97 67.15 67.65 67.66 66.88 65.55 65.26 65.28 65.61 65.59 64.39 65.21 65.58 65.13 65.05 65.36 64.63 63.86 63.56 63.59
47.39 42.93 40.50 42.41 43.52 44.82 48.26 48.80 49.69 53.19 52.90 52.87 54.81 55.30 56.70 61.68 61.88 61.63 61.82 62.54 63.39 64.88 64.89 65.19 65.65 66.03 66.03 65.93 65.33 63.61 64.46 65.09 65.24 64.83 63.59 62.49 63.75 63.75 62.71 62.65 63.79 65.35 66.28 66.61 66.27 65.88 65.22 64.23 62.97
44.46 40.84 42.16 45.57 45.07 45.93 48.21 49.20 51.27 51.90 52.27 51.43 53.09 56.28 59.80 60.98 60.06 59.92 60.41 60.91 61.11 62.35 63.36 64.45 64.66 65.04 65.15 66.84 65.45 64.31 65.29 64.75 65.19 63.68 62.87 62.38 62.53 62.98 63.05 60.63 61.38 63.10 63.26 64.65 66.07 66.27 65.06 62.20 58.97
43.90 42.38 44.82 46.70 48.61 48.36 48.65 48.13 49.35 50.78 48.16 53.34 54.04 56.46 58.84 58.75 59.24 59.73 59.98 60.63 61.12 61.63 62.26 64.11 64.15 64.45 64.42 64.66 64.35 63.68 63.90 63.85 63.79 63.57 63.24 61.84 61.73 61.28 61.62 61.00 60.56 59.83 58.96 59.72 60.77 60.65 60.77 59.98 58.84
41.23 44.61 46.23 48.79 48.96 48.66 48.09 49.35 49.09 49.37 49.28 53.11 56.13 59.54 59.59 59.03 58.97 59.43 59.48 59.99 60.20 60.84 62.21 63.22 63.97 63.76 63.59 63.80 63.69 63.38 63.20 63.21 62.62 62.89 62.98 61.72 60.69 60.75 59.59 59.48 59.53 58.89 58.95 58.54 58.52 58.40 58.77 58.81 58.93
42.15 43.33 47.83 48.19 48.66 48.02 49.12 46.36 46.94 48.47 48.82 54.81 58.25 58.57 59.00 59.18 59.06 59.12 60.18 60.27 60.13 60.21 61.48 62.31 62.72 63.22 63.37 62.78 62.72 62.71 62.81 62.87 62.81 62.50 62.79 62.38 60.91 60.20 60.04 60.76 60.92 60.55 60.41 59.56 58.11 57.69 57.76 57.60 57.75
44.22 44.77 45.06 47.54 47.08 47.57 47.02 46.10 47.30 46.83 50.44 54.97 57.15 57.11 57.55 58.29 58.85 57.14 58.71 59.47 59.50 60.32 60.78 61.45 62.23 62.63 62.74 62.30 61.97 62.13 62.12 62.53 62.03 62.16 62.56 62.53 61.82 60.88 60.08 60.04 59.82 60.78 60.78 60.32 59.94 59.65 59.35 58.92 58.71
43.19 40.21 42.75 44.59 45.79 45.19 46.04 44.37 45.42 46.84 50.99 53.38 55.05 55.40 56.48 57.29 57.93 58.55 59.25 58.68 58.06 57.61 59.26 57.41 59.56 61.96 61.82 61.71 61.93 61.82 62.14 62.55 61.75 61.59 61.96 62.13 62.25 61.75 62.72 62.40 61.70 60.86 60.93 60.74 60.24 60.08 59.91 59.35 59.40
38.87 38.24 35.81 40.29 44.65 44.32 43.07 39.63 43.97 45.92 49.36 51.00 52.41 52.85 54.71 56.26 57.19 57.66 57.43 55.80 53.76 51.41 51.14 50.63 52.49 51.43 52.10 52.09 52.59 55.28 60.18 61.35 61.93 61.92 62.15 62.29 62.22 62.55 63.62 63.08 62.58 62.71 62.10 60.51 60.60 60.30 59.60 59.38 59.25
35.27 30.23 32.00 37.43 42.89 43.36 41.89 38.10 42.59 43.40 44.44 47.00 48.46 49.07 49.97 49.95 50.34 51.27 52.31 50.81 49.91 48.92 48.86 49.12 49.79 49.96 50.41 50.76 50.44 49.44 50.57 54.19 58.82 60.46 61.12 61.72 62.10 62.86 62.87 63.55 62.98 63.16 62.36 62.09 61.68 61.10 60.35 59.71 59.29
31.96 32.01 32.50 33.43 36.14 40.01 39.19 40.41 42.20 40.66 40.62 43.72 44.41 45.25 45.00 45.53 47.87 49.61 49.77 48.76 47.48 47.19 47.75 48.56 48.91 49.16 49.58 49.98 50.62 49.19 49.44 50.93 53.20 55.27 57.41 59.69 60.95 61.78 61.96 62.37 63.25 63.34 62.77 62.21 62.00 61.15 60.77 60.07 60.13
36.14 33.41 31.20 32.28 36.33 34.59 36.75 37.77 41.49 42.08 40.01 40.02 40.25 40.79 41.64 42.93 45.86 47.25 47.89 46.47 46.51 46.25 46.81 47.26 47.38 47.24 47.73 48.24 49.29 48.52 48.39 52.42 54.47 53.94 55.05 58.11 59.29 60.69 61.11 61.20 60.80 61.11 60.15 58.74 58.74 58.86 59.68 59.68 60.00
35.12 31.96 30.12 33.11 36.36 35.06 33.67 34.20 36.56 38.38 40.40 42.36 42.17 41.33 41.64 41.73 43.34 44.27 44.43 45.19 45.14 45.42 45.42 45.63 46.06 45.51 45.98 47.19 49.39 50.49 50.44 53.30 52.71 48.63 46.97 48.78 52.46 55.01 57.27 59.80 59.44 58.87 58.69 59.41 59.42 59.55 58.82 58.78 59.27
32.73 31.06 30.11 31.56 33.81 33.18 31.57 29.59 33.52 38.03 37.68 39.60 41.43 43.22 43.88 44.21 43.99 42.93 43.24 44.42 43.94 43.24 43.71 44.49 44.18 43.92 44.47 45.89 49.06 50.56 52.06 51.21 50.42 47.68 44.00 43.84 45.81 47.15 48.51 50.05 51.77 52.14 54.09 52.28 52.90 54.41 57.20 57.35 57.81
32.05 35.47 34.95 33.96 30.80 24.91 30.63 20.04 28.71 32.67 34.17 35.90 38.58 40.41 43.03 43.49 40.94 42.34 43.12 43.09 42.61 42.42 42.42 42.24 42.26 42.69 43.50 44.75 49.25 50.29 50.78 48.66 46.56 43.85 41.99 41.59 42.59 42.96 44.23 45.38 46.19 46.50 47.31 47.58 48.97 52.43 53.98 54.99 55.76
34.32 37.81 36.11 34.86 30.08 28.25 25.29 25.74 27.46 29.79 31.87 35.47 36.97 37.74 39.76 39.75 39.90 40.93 42.63 45.03 42.40 41.26 40.23 39.86 40.44 40.64 40.86 43.12 47.00 49.50 46.97 44.63 42.02 40.95 40.10 39.79 39.89 40.47 41.30 42.19 42.60 42.98 44.07 44.79 45.47 45.49 47.38 49.23 51.60
38.80 36.15 35.30 33.17 30.09 21.58 26.76 26.05 23.61 28.81 32.03 33.45 35.85 37.12 38.02 38.50 38.32 39.68 41.30 41.83 40.43 38.80 38.43 38.30 39.21 38.85 39.32 40.54 42.50 44.24 43.08 41.50 40.08 39.24 38.53 37.71 37.47 37.64 38.23 39.37 39.62 40.57 41.72 41.83 41.92 42.32 41.80 42.50 43.58
36.03 31.17 20.06 18.02 19.12 18.53 24.71 25.48 29.54 32.73 35.35 35.12 36.11 36.67 36.31 38.79 38.67 38.12 39.39 39.35 38.13 36.57 36.68 37.41 37.74 37.43 37.66 37.93 38.45 40.01 40.64 40.90 40.12 38.71 37.37 36.07 35.25 34.81 35.08 36.49 37.44 38.56 39.05 39.24 39.57 39.02 38.69 38.61 39.29
34.56 31.07 24.18 16.67 18.95 19.33 27.03 23.75 27.59 34.79 36.98 38.08 38.17 37.78 38.07 38.43 39.35 39.17 39.23 38.92 37.37 35.94 35.69 36.56 36.66 35.88 35.93 35.66 35.27 35.68 36.77 36.69 36.09 35.34 34.54 33.75 33.30 33.34 34.36 35.33 36.34 36.89 37.33 37.00 37.48 37.47 37.44 36.68 36.66
34.82 30.35 33.07 26.17 16.59 17.55 23.07 26.55 31.24 34.39 34.89 34.63 35.96 37.19 37.86 38.34 38.73 38.45 38.22 37.72 35.82 35.23 34.90 35.33 35.57 35.41 34.79 33.67 33.31 33.52 33.80 33.89 32.87 32.44 32.52 32.24 32.48 34.34 33.96 35.09 34.73 35.02 35.50 35.61 35.23 34.98 34.82 35.17 35.12
35.93 37.30 27.52 22.93 12.80 12.04 21.74 23.08 25.63 30.09 33.10 35.64 34.83 36.90 38.21 38.42 38.08 37.91 37.38 36.91 36.08 35.10 34.50 34.18 34.72 34.28 33.95 32.75 32.35 32.70 32.15 32.09 31.83 31.76 31.30 31.54 31.83 32.67 33.13 33.41 32.71 32.64 32.75 33.29 33.30 33.13 33.75 33.37 33.06
33.79 32.45 33.03 31.48 25.52 17.63 14.41 21.66 29.25 31.60 33.05 33.99 34.43 35.92 37.42 38.43 38.35 37.94 37.26 36.61 36.20 35.09 34.20 33.10 32.82 33.21 32.57 32.23 31.33 30.88 30.66 30.76 30.59 30.42 30.17 30.11 30.53 31.17 31.89 32.08 31.58 30.65 30.49 31.01 31.11 31.46 31.53 30.05 29.48
37.17 34.67 35.20 29.07 22.63 24.66 24.08 25.87 33.11 32.87 32.95 33.13 34.91 35.76 35.07 36.77 38.17 37.29 36.91 36.23 35.37 34.34 33.27 33.08 31.99 32.19 32.11 31.76 30.66 30.16 29.88 29.23 28.67 28.48 28.53 29.15 29.22 30.32 31.36 30.95 30.16 29.29 29.30 29.60 29.80 29.61 28.46 27.57 27.99
MSLP
1011.50 1011.50 1011.74 1012.26 1014.18 1015.40 1016.48 1016.73 1016.64 1016.85 1017.17 1017.31 1017.34 1017.61 1018.04 1018.52 1018.62 1019.34 1018.77 1018.94 1019.00 1019.50 1019.76 1019.95 1020.15 1020.30 1020.50 1020.66 1020.76 1020.88 1020.93 1021.15 1021.32 1021.45 1021.53 1021.61 1021.67 1021.71 1021.78 1021.89 1021.96 1021.91 1021.90 1021.94 1022.05 1022.13 1022.27 1022.28 1022.24
1011.47 1011.68 1012.02 1013.29 1014.83 1016.36 1016.84 1016.77 1016.78 1016.71 1017.16 1017.40 1017.52 1017.92 1018.21 1018.65 1018.48 1018.70 1019.05 1019.09 1018.99 1019.41 1019.78 1020.06 1020.27 1020.43 1020.58 1020.77 1020.90 1020.97 1021.04 1021.28 1021.50 1021.65 1021.77 1021.85 1021.90 1021.99 1022.09 1022.10 1022.25 1022.21 1022.11 1022.31 1022.46 1022.56 1022.58 1022.60 1022.59
1011.27 1011.67 1012.65 1014.12 1015.78 1016.46 1016.58 1016.57 1016.68 1017.02 1017.19 1017.37 1017.84 1018.08 1018.21 1018.51 1018.48 1018.40 1018.38 1018.79 1019.18 1019.51 1019.81 1020.12 1020.40 1020.55 1020.73 1020.91 1021.07 1021.19 1021.23 1021.44 1021.65 1021.79 1021.90 1022.02 1022.08 1022.16 1022.30 1022.38 1022.46 1022.59 1022.51 1022.59 1022.74 1022.82 1022.80 1022.80 1022.77
1011.52 1012.33 1013.84 1014.48 1015.93 1016.20 1016.15 1016.29 1016.59 1017.27 1017.33 1017.37 1017.87 1018.45 1018.31 1018.04 1018.16 1018.14 1018.53 1018.82 1019.33 1019.65 1019.91 1020.23 1020.45 1020.64 1020.86 1021.01 1021.20 1021.32 1021.42 1021.55 1021.74 1021.84 1021.94 1022.07 1022.23 1022.36 1022.46 1022.58 1022.76 1022.77 1022.74 1022.75 1022.91 1022.98 1023.04 1023.00 1022.91
1012.04 1013.03 1014.72 1015.67 1016.14 1016.10 1016.02 1016.10 1016.66 1017.18 1017.45 1017.71 1017.80 1018.56 1018.52 1018.27 1018.07 1018.32 1018.67 1019.00 1019.49 1019.81 1020.04 1020.32 1020.48 1020.70 1020.92 1021.07 1021.25 1021.44 1021.57 1021.65 1021.81 1021.92 1022.04 1022.18 1022.30 1022.47 1022.62 1022.73 1022.85 1022.90 1022.95 1023.02 1023.14 1023.22 1023.28 1023.28 1023.19
1012.99 1013.88 1015.47 1016.22 1016.28 1016.10 1015.97 1016.07 1016.55 1017.06 1017.55 1017.87 1018.11 1018.48 1018.73 1018.47 1018.40 1018.60 1018.75 1019.13 1019.36 1019.66 1020.03 1020.35 1020.52 1020.69 1020.93 1021.11 1021.30 1021.49 1021.71 1021.84 1021.96 1022.06 1022.21 1022.37 1022.51 1022.68 1022.80 1022.92 1023.05 1023.10 1023.16 1023.23 1023.37 1023.49 1023.50 1023.49 1023.52
1013.45 1014.57 1015.88 1016.24 1016.38 1016.02 1015.93 1016.08 1016.52 1016.84 1017.28 1017.64 1017.85 1018.71 1018.94 1018.66 1018.55 1018.58 1018.88 1019.05 1019.43 1019.76 1020.00 1020.28 1020.55 1020.75 1020.93 1021.14 1021.39 1021.58 1021.74 1021.91 1022.04 1022.15 1022.27 1022.42 1022.59 1022.75 1022.88 1023.02 1023.15 1023.20 1023.25 1023.36 1023.44 1023.50 1023.55 1023.61 1023.69
1013.97 1014.87 1016.18 1016.18 1016.22 1016.05 1015.95 1016.14 1016.35 1016.51 1017.19 1017.47 1017.52 1018.28 1018.82 1018.41 1018.49 1018.79 1019.09 1019.49 1019.68 1019.83 1020.03 1020.21 1020.47 1020.72 1020.94 1021.16 1021.35 1021.56 1021.71 1021.86 1022.04 1022.19 1022.36 1022.46 1022.60 1022.75 1022.89 1023.04 1023.16 1023.20 1023.22 1023.26 1023.34 1023.43 1023.52 1023.59 1023.64
1013.86 1015.01 1016.22 1016.06 1016.11 1015.75 1015.76 1016.09 1016.36 1016.48 1016.96 1017.52 1017.66 1017.66 1017.62 1017.96 1018.62 1019.10 1019.49 1019.87 1020.05 1020.17 1020.22 1020.31 1020.44 1020.64 1020.80 1020.96 1021.18 1021.44 1021.66 1021.82 1021.94 1022.07 1022.24 1022.43 1022.59 1022.76 1022.88 1023.01 1023.11 1023.15 1023.21 1023.23 1023.27 1023.36 1023.47 1023.60 1023.75
1014.43 1015.48 1015.70 1015.43 1015.47 1015.45 1015.58 1015.84 1016.19 1016.57 1017.15 1017.61 1017.84 1017.83 1017.78 1018.18 1018.79 1019.26 1019.58 1019.92 1020.12 1020.18 1020.21 1020.28 1020.39 1020.55 1020.75 1020.87 1021.04 1021.26 1021.44 1021.66 1021.76 1021.99 1022.17 1022.32 1022.43 1022.57 1022.75 1022.96 1023.11 1023.17 1023.17 1023.21 1023.24 1023.28 1023.40 1023.58 1023.82
1015.15 1015.41 1015.34 1015.34 1015.20 1015.40 1015.70 1016.08 1016.26 1016.51 1017.28 1017.03 1017.15 1017.82 1018.13 1018.51 1018.90 1019.09 1019.42 1019.58 1019.72 1019.96 1020.10 1020.17 1020.29 1020.43 1020.63 1020.76 1020.96 1021.15 1021.32 1021.42 1021.58 1021.64 1021.82 1022.08 1022.32 1022.50 1022.68 1022.86 1022.95 1023.05 1023.09 1023.16 1023.17 1023.28 1023.42 1023.59 1023.76
1015.53 1015.47 1015.51 1015.40 1015.09 1015.43 1015.87 1016.08 1016.34 1016.58 1016.74 1016.50 1016.71 1016.96 1017.83 1018.49 1018.80 1018.92 1019.15 1019.37 1019.55 1019.78 1019.80 1019.93 1020.08 1020.35 1020.49 1020.67 1020.85 1020.99 1021.22 1021.27 1021.44 1021.46 1021.58 1021.92 1022.18 1022.37 1022.55 1022.76 1022.82 1022.96 1022.92 1023.02 1023.10 1023.24 1023.33 1023.45 1023.52
1015.75 1015.87 1015.78 1015.77 1015.52 1015.55 1015.68 1016.14 1016.45 1016.60 1016.60 1016.69 1017.13 1017.70 1018.04 1018.45 1018.68 1018.87 1018.90 1019.11 1019.36 1019.60 1019.61 1019.74 1019.91 1020.15 1020.32 1020.60 1020.72 1020.92 1020.99 1021.09 1021.08 1021.36 1021.44 1021.64 1021.92 1022.09 1022.15 1022.17 1022.37 1022.53 1022.66 1022.80 1022.90 1023.04 1023.16 1023.27 1023.30
1016.29 1016.21 1016.36 1016.24 1016.10 1015.97 1015.95 1016.23 1016.34 1016.70 1016.79 1017.23 1017.60 1017.97 1018.27 1018.41 1018.45 1018.87 1019.07 1019.06 1019.27 1019.37 1019.42 1019.49 1019.69 1019.74 1020.08 1020.36 1020.49 1020.60 1020.71 1020.72 1020.93 1021.07 1021.13 1021.33 1021.53 1021.75 1021.97 1022.07 1022.14 1022.07 1022.06 1022.27 1022.44 1022.56 1022.70 1022.79 1022.86
1016.69 1016.81 1016.84 1016.75 1016.55 1016.60 1016.40 1016.66 1016.48 1016.65 1017.13 1017.51 1017.93 1018.18 1018.43 1018.46 1018.64 1018.53 1018.53 1018.92 1019.00 1019.07 1019.07 1019.22 1019.30 1019.37 1019.73 1019.98 1020.15 1020.36 1020.41 1020.48 1020.58 1020.64 1020.81 1021.02 1021.20 1021.43 1021.41 1021.58 1021.67 1021.76 1021.81 1021.81 1022.08 1022.29 1022.42 1022.56 1022.45
1017.71 1017.78 1017.91 1017.24 1016.99 1017.03 1016.96 1017.14 1016.72 1017.10 1017.56 1017.98 1018.28 1018.47 1018.51 1018.42 1018.33 1018.37 1018.45 1018.64 1018.74 1018.87 1019.00 1019.04 1019.11 1019.46 1019.68 1019.94 1020.17 1020.26 1020.20 1020.23 1020.17 1020.27 1020.39 1020.52 1020.74 1020.90 1020.98 1021.13 1021.23 1021.15 1021.45 1021.68 1021.74 1021.87 1022.16 1022.20 1022.16
1019.11 1018.90 1018.74 1018.02 1017.41 1017.48 1017.66 1017.89 1017.20 1017.39 1017.93 1018.45 1018.63 1018.80 1018.73 1018.66 1018.57 1018.49 1018.42 1018.50 1018.60 1018.73 1018.97 1019.15 1019.23 1019.46 1019.77 1019.91 1020.12 1020.25 1020.18 1020.15 1020.05 1020.06 1020.02 1020.03 1020.24 1020.44 1020.65 1020.52 1020.54 1020.77 1021.01 1021.24 1021.29 1021.44 1021.66 1021.68 1021.70
1019.30 1019.35 1019.05 1018.66 1018.45 1018.34 1018.64 1018.40 1018.10 1017.96 1018.38 1018.66 1018.79 1018.78 1018.84 1018.76 1018.25 1018.25 1018.24 1018.40 1018.63 1018.92 1019.17 1019.45 1019.54 1019.63 1019.83 1020.07 1020.23 1020.22 1020.18 1020.12 1020.10 1020.05 1019.98 1019.92 1019.99 1020.15 1020.36 1020.46 1020.49 1020.53 1020.78 1020.92 1021.11 1021.26 1021.30 1021.37 1021.27
1018.56 1019.14 1019.30 1019.29 1019.12 1019.28 1019.34 1019.31 1018.69 1018.68 1018.83 1019.01 1019.01 1018.73 1018.71 1018.50 1017.75 1017.86 1017.93 1018.40 1018.82 1019.18 1019.36 1019.47 1019.60 1019.75 1019.91 1020.16 1020.31 1020.36 1020.47 1020.41 1020.44 1020.39 1020.14 1019.85 1019.81 1019.81 1019.95 1020.32 1020.52 1020.64 1020.68 1020.83 1021.08 1021.15 1021.15 1021.17 1021.05
1019.13 1019.67 1020.00 1019.89 1019.96 1020.14 1020.20 1019.87 1019.30 1019.03 1018.96 1018.60 1018.54 1018.56 1018.30 1018.12 1017.74 1017.72 1018.02 1018.34 1018.57 1018.79 1019.21 1019.55 1019.64 1019.77 1019.80 1019.98 1020.18 1020.27 1020.46 1020.61 1020.66 1020.81 1020.74 1020.54 1020.41 1020.39 1020.44 1020.55 1020.68 1020.82 1020.90 1021.09 1021.31 1021.33 1021.27 1021.21 1021.21
1019.66 1020.04 1020.43 1020.45 1020.69 1020.93 1021.06 1020.33 1019.71 1018.49 1018.37 1018.17 1017.97 1017.65 1017.53 1017.41 1017.43 1017.45 1017.94 1018.08 1018.36 1018.79 1019.12 1019.42 1019.56 1019.75 1019.84 1019.95 1020.17 1020.40 1020.56 1020.78 1020.99 1021.14 1021.30 1021.37 1021.20 1021.23 1021.23 1021.34 1021.35 1021.41 1021.21 1021.66 1021.83 1021.88 1021.78 1021.61 1021.42
1020.15 1020.23 1020.50 1021.07 1021.78 1022.32 1022.19 1021.23 1020.17 1019.14 1018.44 1018.16 1017.55 1017.25 1016.87 1016.71 1016.89 1017.09 1017.48 1017.99 1018.38 1018.55 1019.10 1019.40 1019.59 1019.72 1019.85 1019.97 1019.97 1020.10 1020.51 1021.01 1021.32 1021.54 1021.93 1022.03 1021.92 1021.89 1021.85 1021.90 1021.75 1021.98 1021.87 1022.10 1022.11 1021.91 1022.09 1022.00 1021.74
1019.96 1020.17 1020.81 1021.61 1022.56 1023.13 1023.27 1023.34 1020.00 1019.48 1018.82 1017.66 1016.81 1016.54 1016.26 1016.28 1016.74 1016.82 1016.96 1017.01 1017.69 1018.43 1019.00 1019.45 1019.77 1019.91 1020.01 1020.00 1019.77 1019.86 1020.52 1020.99 1021.46 1021.88 1022.20 1022.39 1022.47 1022.40 1022.29 1022.20 1022.28 1022.28 1022.40 1022.56 1022.48 1022.42 1022.43 1022.49 1022.41
1019.88 1020.73 1021.84 1022.80 1023.65 1023.97 1023.14 1023.45 1019.86 1019.29 1017.92 1017.13 1016.23 1015.84 1016.03 1016.26 1016.34 1016.49 1016.63 1017.07 1017.59 1018.34 1018.95 1019.44 1019.77 1020.06 1020.22 1020.10 1019.93 1019.99 1020.44 1021.13 1021.71 1022.18 1022.50 1022.74 1022.85 1022.87 1022.78 1022.68 1022.69 1022.70 1022.76 1022.85 1022.90 1022.91 1022.98 1022.98 1022.90
1019.67 1020.78 1022.85 1024.28 1024.86 1023.89 1023.24 1023.20 1018.68 1018.07 1016.95 1016.48 1015.96 1015.65 1015.95 1016.12 1016.13 1016.36 1016.85 1017.26 1017.87 1018.53 1018.90 1019.24 1019.64 1020.07 1020.24 1020.25 1020.43 1020.55 1020.71 1021.03 1021.49 1021.99 1022.43 1022.77 1023.03 1023.24 1023.27 1023.15 1023.18 1023.23 1023.28 1023.32 1023.30 1023.40 1023.45 1023.47 1023.43
1019.58 1020.00 1021.47 1023.04 1024.33 1024.03 1023.64 1021.76 1018.15 1016.91 1016.08 1015.71 1015.76 1015.78 1015.67 1015.87 1016.00 1016.14 1016.64 1017.34 1017.86 1018.48 1019.16 1019.56 1019.96 1020.24 1020.36 1020.40 1020.73 1020.99 1021.12 1021.34 1021.71 1022.09 1022.52 1022.88 1023.16 1023.40 1023.49 1023.56 1023.57 1023.60 1023.60 1023.66 1023.69 1023.81 1023.91 1024.02 1023.96
1019.45 1019.90 1020.61 1022.33 1024.36 1024.31 1022.55 1020.51 1018.14 1016.52 1015.93 1015.44 1015.46 1015.56 1015.61 1015.74 1015.80 1016.28 1016.90 1017.38 1018.01 1018.61 1018.93 1019.50 1019.95 1020.28 1020.51 1020.64 1020.90 1021.31 1021.51 1021.60 1021.89 1022.30 1022.69 1023.09 1023.39 1023.51 1023.76 1023.85 1024.00 1024.06 1024.04 1024.07 1024.12 1024.20 1024.28 1024.29 1024.41
1018.19 1019.15 1020.58 1021.85 1023.53 1023.66 1021.60 1020.23 1017.82 1016.41 1015.76 1015.35 1015.38 1015.64 1015.47 1015.59 1015.88 1016.37 1017.09 1017.71 1018.26 1018.64 1018.98 1019.40 1019.70 1020.07 1020.53 1020.87 1021.17 1021.53 1021.83 1021.97 1022.19 1022.51 1022.91 1023.29 1023.60 1023.77 1023.99 1024.18 1024.35 1024.44 1024.41 1024.42 1024.47 1024.63 1024.67 1024.74 1025.03
1018.41 1018.71 1019.49 1020.46 1021.60 1021.70 1021.13 1018.61 1016.46 1015.95 1015.59 1015.50 1015.30 1015.54 1015.59 1015.63 1015.91 1016.45 1017.03 1017.62 1018.14 1018.63 1019.08 1019.50 1019.92 1020.29 1020.71 1020.91 1021.21 1021.61 1021.99 1022.22 1022.42 1022.69 1023.02 1023.32 1023.64 1023.89 1024.12 1024.29 1024.58 1024.78 1024.89 1024.86 1024.94 1025.10 1025.34 1025.52 1025.72
1017.58 1017.72 1018.63 1019.50 1020.59 1020.62 1019.86 1016.59 1015.39 1015.32 1015.17 1015.08 1015.01 1015.39 1015.39 1015.46 1015.69 1016.32 1016.85 1017.50 1018.10 1018.61 1018.99 1019.29 1019.60 1020.00 1020.45 1020.94 1021.43 1021.86 1022.23 1022.52 1022.74 1022.97 1023.26 1023.53 1023.80 1024.02 1024.26 1024.54 1024.83 1025.03 1025.20 1025.28 1025.38 1025.63 1025.98 1026.16 1026.32
Wind_Speed
7 3 3 5 6 6 1 2 1 4 1 1 2 4 7 3 2 4 1 5 10 7 6 8 10 9 9 8 8 10 12 11 9 8 8 8 8 9 9 10 9 10 11 11 11 12 11 12 12
3 2 5 3 7 4 3 2 5 4 6 6 5 3 5 2 2 6 5 5 10 9 6 6 10 10 10 8 7 6 7 11 9 8 7 7 6 6 8 8 7 6 11 10 10 10 10 10 10
4 3 4 5 4 5 5 4 4 3 8 1 4 4 3 2 1 7 5 10 8 7 7 7 10 10 11 9 7 6 7 10 8 8 7 7 6 6 6 7 7 5 4 9 9 9 10 10 7
2 4 5 6 3 2 3 5 4 6 2 4 4 6 2 2 5 5 9 11 8 6 6 8 10 10 10 10 8 7 8 9 8 7 7 6 6 6 5 5 5 3 5 8 8 9 9 12 7
4 4 5 5 1 1 1 6 7 5 3 2 2 3 2 2 3 11 10 9 9 6 6 6 10 10 9 9 9 7 6 7 7 8 7 5 6 5 3 4 4 4 5 6 7 8 8 9 11
4 4 5 3 2 1 3 6 6 3 2 3 5 4 0 1 7 7 8 8 7 9 6 6 8 9 9 8 7 6 5 4 1 3 6 5 5 5 3 3 2 1 2 3 3 4 5 5 6
6 4 5 6 4 2 5 6 6 6 5 3 8 5 1 1 5 7 7 6 6 6 7 6 5 6 7 7 6 6 5 3 3 2 3 4 4 4 3 2 2 3 2 1 1 2 4 4 4
5 5 4 2 6 4 5 4 5 4 2 2 3 5 5 5 7 6 6 5 6 6 5 6 6 5 5 5 7 7 6 5 4 3 2 2 4 5 5 4 4 5 5 4 3 3 3 4 4
2 5 3 7 7 5 5 5 0 2 6 1 1 6 3 9 7 6 4 4 4 3 5 5 6 6 6 5 5 6 6 7 6 4 4 3 2 4 4 4 5 6 6 6 6 6 5 5 5
5 4 6 5 3 5 6 5 9 5 4 1 0 2 5 10 7 7 6 6 4 6 6 5 5 6 5 3 5 5 4 4 4 4 4 3 3 4 4 4 6 6 6 8 8 7 7 5 2
2 4 5 2 3 4 7 3 1 9 3 7 10 8 8 6 7 8 7 6 7 5 3 6 6 6 6 5 3 2 2 3 3 5 5 5 3 3 2 2 2 3 4 3 4 4 3 3 3
2 3 1 0 1 5 8 7 4 1 2 6 7 15 12 10 10 10 9 8 6 6 7 6 6 5 6 3 3 3 3 3 3 4 5 4 3 3 4 3 4 3 3 4 4 3 4 4 5
3 4 4 3 5 5 7 4 4 4 4 3 9 6 10 9 8 6 7 6 5 6 7 7 6 6 5 5 3 4 4 4 5 4 4 4 4 4 3 4 4 4 3 3 4 4 3 4 5
1 3 3 5 4 2 5 2 6 3 2 6 9 9 7 9 10 4 6 8 7 7 7 6 7 7 5 5 6 4 4 5 4 4 5 6 4 4 4 3 4 3 5 4 4 4 4 4 4
2 2 3 3 4 3 0 1 5 3 4 8 9 7 7 8 6 10 8 7 7 7 6 8 7 6 7 6 5 4 4 4 4 4 5 6 5 5 5 4 4 4 4 5 3 4 3 3 3
4 6 2 3 2 2 3 6 4 3 5 8 7 7 7 9 10 7 7 8 8 5 8 6 5 5 4 4 3 3 4 4 4 4 4 6 6 7 5 4 4 4 3 4 3 4 4 5 5
7 4 2 7 3 1 3 6 5 1 3 6 7 7 7 6 7 8 8 7 7 7 7 6 5 5 2 1 2 3 4 4 3 4 4 6 6 6 5 4 4 3 3 3 3 3 4 3 4
6 5 4 5 3 3 1 7 6 2 4 9 7 8 8 8 12 7 8 7 5 4 4 4 3 3 1 1 2 2 2 3 2 2 3 4 4 5 4 2 2 2 2 2 2 4 3 3 3
6 4 4 2 2 1 6 7 12 5 4 7 9 8 8 10 8 7 7 6 6 5 7 7 6 3 2 1 0 1 2 1 2 3 5 3 1 2 4 3 3 1 2 2 2 2 2 3 2
4 4 4 2 2 1 4 10 10 5 7 10 11 10 11 7 8 7 6 7 8 7 6 5 5 4 2 2 2 2 2 3 3 3 5 7 6 6 5 3 3 2 2 5 4 3 2 2 1
3 6 4 3 3 2 5 7 7 8 4 6 9 11 10 14 14 9 8 11 8 8 8 7 6 4 2 2 2 2 2 2 2 3 3 5 6 6 6 6 4 4 3 3 3 4 4 2 0
4 5 5 5 4 4 3 9 6 7 9 7 11 11 15 15 8 8 9 7 9 8 6 5 5 4 2 3 4 5 3 3 1 3 3 4 6 6 6 5 6 4 4 4 2 3 2 3 2
6 6 7 4 3 2 0 3 8 2 7 13 11 11 14 10 8 11 12 15 8 8 7 5 4 3 1 3 4 5 4 3 3 3 5 5 5 5 5 6 5 5 4 3 4 4 4 2 2
8 7 7 5 3 3 8 7 6 6 7 6 6 8 7 8 8 9 7 6 7 7 7 6 6 3 2 3 3 6 8 7 5 4 4 3 3 3 5 5 5 5 4 4 3 4 4 3 2
3 7 3 4 1 9 1 5 11 7 10 10 11 9 5 6 5 6 7 8 7 8 8 7 7 5 3 5 4 5 6 7 7 5 4 4 2 2 4 3 4 3 4 4 4 4 4 4 3
5 7 7 9 6 3 2 9 9 9 10 9 8 8 8 8 7 7 7 6 7 8 7 6 6 5 5 5 5 4 5 4 4 4 3 3 3 2 2 3 4 4 4 4 4 3 3 4 4
6 6 5 6 3 3 5 8 10 11 12 6 8 7 8 8 6 6 4 6 7 8 9 8 7 5 5 5 5 4 4 6 5 6 5 3 3 3 3 3 4 4 4 4 4 3 4 4 4
7 8 3 3 2 4 5 6 8 5 7 9 7 7 8 6 5 3 3 5 5 5 6 7 7 7 6 6 5 4 5 5 5 5 5 5 3 3 4 4 4 3 4 4 4 3 4 5 4
4 4 4 5 6 6 2 8 8 7 8 8 7 8 6 7 5 4 4 6 7 5 6 6 6 6 6 6 6 6 5 5 5 5 5 5 4 4 4 4 4 3 3 4 4 5 5 6 5
4 5 11 4 5 4 2 11 4 6 5 4 6 6 5 5 4 4 6 6 6 7 7 7 7 7 6 6 5 5 5 5 5 5 4 4 5 3 4 4 4 4 4 4 4 5 5 5 5
Wind_Direction
337 20 118 48 59 66 95 237 182 128 73 23 79 137 142 67 138 189 235 153 133 141 148 134 137 134 124 118 116 146 134 122 114 104 99 90 87 82 77 78 57 67 76 76 71 73 73 72 73
336 157 48 81 87 81 266 243 169 175 150 144 83 70 58 83 120 122 110 160 142 141 134 132 138 141 140 133 128 127 115 117 122 120 112 104 99 92 80 94 76 58 78 78 70 64 59 55 62
130 28 86 93 107 154 177 197 170 81 134 190 98 61 112 137 84 152 151 142 137 135 139 144 146 145 141 133 134 137 127 127 126 136 127 112 115 102 93 79 84 63 87 92 68 54 46 33 49
96 21 39 82 134 202 187 156 137 129 196 65 116 67 23 248 158 168 138 136 139 142 141 150 152 152 150 142 138 138 143 143 141 146 149 139 131 124 125 108 49 133 42 82 59 46 38 27 88
33 61 67 76 72 211 243 134 144 139 115 105 125 155 64 342 95 133 137 145 148 148 147 157 159 158 158 153 147 143 143 163 160 161 158 170 157 152 146 126 85 63 58 58 51 35 36 29 29
50 96 72 131 173 111 85 137 129 117 128 151 84 97 217 345 134 156 146 159 161 157 154 164 171 165 162 159 154 152 156 170 158 181 161 167 170 178 178 182 159 128 70 44 63 23 30 30 22
100 79 138 133 141 97 157 146 160 149 127 189 153 96 294 191 180 157 153 152 149 147 155 164 172 176 171 169 173 177 181 183 170 161 179 184 188 198 204 230 244 248 262 255 141 333 352 353 353
99 90 111 143 170 185 160 117 138 120 135 101 143 165 180 206 175 133 119 129 144 158 170 173 171 174 178 183 189 192 196 204 214 214 212 192 224 220 225 229 252 259 269 276 280 255 282 306 322
106 65 152 178 156 186 175 129 222 89 112 75 290 157 211 136 123 110 102 111 135 174 187 184 172 183 187 189 198 202 207 206 205 214 227 229 220 224 231 232 237 257 270 271 264 249 254 280 312
67 91 181 172 187 178 166 152 159 132 125 163 94 27 110 127 147 155 161 177 191 193 199 194 186 191 190 197 193 203 200 208 197 199 209 209 213 211 212 232 253 267 276 279 280 274 263 275 281
357 158 174 189 177 167 145 122 114 119 211 206 184 161 148 146 169 172 185 185 196 206 195 195 197 193 192 197 196 196 202 204 221 202 193 201 206 216 222 231 247 250 263 263 270 286 281 265 259
50 360 324 353 145 127 148 135 131 199 232 284 182 159 156 166 183 190 192 201 190 194 214 206 201 196 207 191 198 200 200 207 221 220 202 188 192 203 214 222 235 238 239 255 243 244 259 267 261
65 2 24 33 75 101 113 114 139 227 337 95 123 146 171 175 194 202 200 209 199 211 220 218 192 207 211 208 205 209 215 207 214 219 220 193 203 210 212 205 195 215 215 232 239 233 240 253 258
316 66 4 9 24 58 119 137 135 215 123 134 153 181 184 190 195 186 210 220 207 219 227 216 212 210 192 214 212 219 216 225 212 214 219 210 208 215 212 231 241 230 195 209 221 214 220 234 230
52 64 6 17 354 31 330 85 222 153 148 168 189 189 195 217 189 217 216 217 208 226 228 215 219 202 201 213 222 225 231 219 220 218 218 217 210 219 220 223 212 235 225 210 207 231 229 238 236
67 49 86 314 18 23 76 257 265 118 149 194 203 203 210 224 219 230 228 228 225 205 200 179 163 158 172 202 241 255 251 239 237 223 208 217 215 219 220 202 219 217 211 213 197 214 230 229 224
14 162 172 316 203 65 129 240 276 152 187 228 224 229 235 260 265 249 246 235 225 209 181 173 155 150 145 309 285 269 267 258 252 235 226 227 221 229 224 224 217 208 220 228 216 237 219 234 235
175 178 211 203 341 51 35 254 267 315 199 234 238 241 243 251 252 236 239 226 211 193 175 164 148 132 110 326 286 278 284 283 287 288 269 257 233 226 211 241 234 178 223 296 248 240 216 235 247
134 129 154 241 343 188 230 250 260 235 267 260 251 247 242 240 259 233 229 187 172 180 178 182 170 165 136 157 112 333 293 348 44 30 16 23 179 179 153 137 119 107 175 223 268 267 279 254 240
121 134 189 265 40 140 321 272 271 243 224 226 237 243 242 251 256 246 207 193 193 185 188 177 181 179 165 140 187 153 157 83 78 54 37 32 39 44 61 84 100 60 45 24 10 356 304 288 357
159 163 167 178 26 56 337 282 245 268 219 223 245 243 244 233 236 229 206 207 191 195 187 188 186 182 165 180 159 106 88 72 81 43 41 24 41 43 52 45 63 56 71 72 40 15 346 314 309
218 173 140 122 84 239 38 282 287 263 275 246 243 236 248 244 232 228 209 212 204 198 181 178 170 166 173 210 189 176 173 152 107 89 77 48 40 49 51 58 57 57 54 58 26 38 4 330 287
218 155 154 132 127 28 269 305 268 306 288 262 254 235 245 253 225 224 215 213 186 166 171 162 152 136 166 189 181 168 140 119 114 105 102 76 54 48 48 51 55 55 56 51 48 32 24 1 323
140 92 57 55 83 292 183 174 229 207 220 284 265 260 259 267 258 246 242 163 162 154 158 161 156 142 143 139 124 150 146 143 133 137 116 92 66 45 42 52 57 58 62 58 56 56 52 33 44
118 111 41 5 26 232 83 175 265 279 244 228 259 275 285 287 261 238 198 180 160 170 169 164 161 157 140 110 98 124 136 143 144 145 143 140 107 52 43 49 55 57 62 62 66 69 60 38 57
182 150 156 195 196 263 100 230 254 232 267 262 273 279 277 272 259 240 210 186 175 163 156 154 163 156 150 123 109 102 117 119 114 123 119 113 109 110 71 75 72 68 71 71 73 72 71 64 58
201 209 151 102 52 48 221 281 287 262 277 283 268 290 298 289 272 254 205 178 160 162 173 173 172 164 159 142 127 125 128 126 127 119 116 121 121 128 111 104 92 71 71 76 85 89 86 79 67
160 147 84 14 149 267 260 261 240 279 249 266 278 282 294 295 282 245 203 180 177 171 172 176 174 172 167 154 154 157 153 137 134 132 137 138 129 109 122 110 96 85 75 83 87 82 76 83 68
146 172 200 135 159 185 261 259 216 238 250 263 279 266 286 292 268 235 196 187 185 179 178 182 176 173 178 176 170 160 164 157 145 142 144 143 132 130 130 123 106 84 78 74 87 81 79 84 84
247 222 189 185 230 248 209 253 205 223 270 213 317 300 311 292 260 217 194 188 190 199 191 192 188 189 186 174 168 178 165 160 153 151 150 140 137 126 134 120 110 99 84 75 88 87 92 98 91